Wind_Speed
111 109 107 105 102 100 99 98 96 95 95 95 95 94 94 94 94 95 94 93 92 91 91 91 91 91 91 89 87 86 84 83 82 80 78 77 76 76 75 75 75 74
116 115 114 113 111 109 107 105 102 98 96 94 93 94 95 95 94 94 94 93 92 93 93 93 93 92 91 89 87 87 87 86 85 84 81 79 79 78 78 78 77 76
121 120 118 118 117 116 115 113 110 107 103 100 98 96 96 96 96 95 95 94 94 93 93 94 94 94 93 91 89 88 88 88 88 87 85 83 81 81 81 81 80 79
128 126 125 123 121 120 119 118 115 113 111 109 107 106 103 101 99 98 97 96 95 94 94 94 94 94 93 92 90 89 90 90 90 90 88 86 85 84 84 84 83 81
130 130 129 128 127 125 124 123 120 118 116 114 113 113 111 108 105 103 101 99 97 95 94 94 94 93 92 91 90 90 90 91 92 92 91 89 88 88 87 86 84 82
130 129 129 130 130 129 128 126 125 123 121 119 118 117 115 113 111 110 108 106 103 99 97 95 95 94 93 91 90 90 90 90 91 92 92 91 91 91 90 88 86 83
133 132 131 131 130 129 128 127 126 125 124 123 123 121 120 118 116 115 114 113 110 107 103 100 98 96 94 92 91 90 89 89 90 90 90 90 90 89 88 86 84 83
137 136 136 135 133 132 130 129 128 127 127 126 126 125 124 123 121 120 119 118 115 112 110 107 105 102 99 96 94 92 91 90 89 89 88 87 87 87 85 84 83 82
143 142 140 139 138 137 135 134 133 132 131 129 128 128 128 128 126 125 123 121 119 116 113 111 110 108 106 103 100 98 97 95 93 92 90 88 87 87 86 84 83 82
149 147 146 144 143 142 141 140 139 138 137 135 132 131 131 130 130 130 129 127 123 119 116 114 113 111 110 108 105 104 102 101 100 98 96 93 91 90 89 87 85 84
156 154 152 150 148 147 146 145 144 143 142 141 139 137 136 135 134 133 133 131 128 125 121 118 116 114 112 111 109 107 105 104 103 102 100 99 97 95 92 90 88 86
162 160 159 157 155 153 152 150 149 147 146 145 143 141 140 140 139 138 137 135 133 130 127 124 121 118 115 113 112 110 108 106 104 103 102 101 100 98 95 91 89 86
162 162 161 160 159 158 156 154 153 151 149 148 146 144 142 141 140 140 139 138 136 134 131 128 125 121 118 116 113 111 110 109 108 106 104 103 101 99 96 93 90 87
158 158 158 158 157 156 155 154 152 151 149 147 146 143 141 139 138 138 137 136 135 134 132 130 127 124 120 117 114 111 110 109 109 107 106 104 102 100 97 94 91 88
153 153 154 153 153 152 152 151 149 148 146 144 143 141 139 137 136 135 134 133 131 130 128 127 125 123 120 117 114 111 109 108 108 107 106 105 103 100 97 94 92 90
146 148 149 149 149 148 147 147 146 144 143 141 139 138 136 135 134 133 132 130 128 126 124 123 121 119 118 116 114 112 110 108 108 107 107 105 103 100 97 95 93 92
140 142 143 144 144 144 143 142 142 141 139 138 136 135 134 133 131 131 130 129 127 124 121 120 118 116 115 114 112 111 110 109 108 108 107 105 102 99 97 96 94 93
134 136 137 138 139 139 139 138 137 137 136 135 134 133 132 131 130 129 128 127 125 123 120 118 116 114 113 112 111 110 109 109 108 108 107 105 103 100 98 97 95 94
129 130 132 133 135 135 136 135 134 133 133 132 131 131 130 129 128 127 127 126 124 122 120 117 115 114 112 111 110 109 108 108 108 108 107 106 104 101 99 97 96 95
125 126 127 129 130 132 133 133 132 131 131 131 130 129 129 128 127 126 125 125 124 122 120 117 115 113 112 111 110 109 108 108 108 108 108 107 105 102 100 99 98 96
122 123 124 125 126 128 130 131 131 131 130 129 129 128 127 126 126 125 124 123 122 121 119 117 115 113 111 110 110 109 109 109 109 109 108 107 105 102 101 100 99 97
118 119 121 122 123 124 126 129 130 130 129 129 128 126 125 124 124 123 122 121 120 119 117 115 113 112 111 110 109 109 110 110 110 109 108 106 104 102 101 101 100 98
115 116 117 119 120 120 122 124 127 129 129 128 127 126 124 123 121 120 119 118 117 116 114 112 111 110 109 108 108 109 110 110 110 109 108 106 104 102 101 101 99 97
111 112 113 115 116 118 118 119 122 126 128 128 127 126 124 122 121 119 117 116 115 113 112 110 109 108 107 107 107 108 109 109 109 108 107 106 104 103 101 100 98 97
109 109 110 111 112 114 116 116 117 120 124 126 127 126 124 123 121 119 117 115 113 112 110 108 107 106 105 105 105 106 107 107 107 107 106 105 103 102 101 100 98 96
109 108 108 108 110 111 113 114 115 115 118 121 124 126 125 123 121 119 117 115 113 112 110 108 106 105 104 104 104 104 104 104 104 104 104 104 103 102 101 99 97 95
Wind_Direction
252 253 253 253 253 253 253 254 255 255 256 256 256 257 257 258 259 260 261 262 263 264 265 266 267 268 269 270 272 273 273 273 274 275 276 277 278 278 278 279 280 282
251 252 253 254 255 256 256 256 256 256 255 256 256 257 258 258 259 260 261 262 262 263 264 265 266 266 268 269 270 271 272 273 273 274 275 275 276 276 277 278 279 281
251 252 252 253 255 256 256 257 257 257 257 257 257 258 258 259 260 260 261 261 262 262 263 264 265 266 266 267 268 269 270 271 272 273 274 274 274 275 275 276 278 280
252 252 253 253 254 255 256 257 257 257 257 258 258 258 258 259 259 260 261 261 262 262 262 263 264 265 266 267 268 269 269 270 271 272 273 273 273 274 274 276 277 280
251 251 252 253 254 255 256 257 257 257 257 258 258 258 259 259 260 260 260 261 261 262 262 263 264 265 266 267 268 269 269 270 271 272 272 273 273 273 274 275 277 279
250 251 251 251 252 253 255 256 257 257 258 258 258 258 259 259 260 260 261 261 261 261 262 263 264 265 266 266 267 268 269 270 270 271 271 272 272 273 274 275 277 278
250 250 251 251 252 253 254 254 255 256 257 257 258 258 259 259 260 260 261 261 261 261 262 262 263 264 265 266 267 268 268 269 270 270 270 271 271 272 273 274 276 277
250 250 251 251 252 253 253 254 255 256 256 256 257 258 259 259 259 260 260 261 261 262 262 263 263 263 264 265 266 267 268 268 269 269 270 270 270 271 272 273 275 276
251 251 251 251 252 253 254 254 255 255 256 256 256 257 258 259 260 260 260 260 261 261 262 263 263 264 264 265 265 265 266 267 268 268 269 269 270 270 271 272 274 275
251 251 251 252 252 253 254 255 255 256 256 256 256 257 257 258 259 260 260 260 261 261 261 262 262 263 264 265 265 265 265 265 266 267 268 268 269 269 270 271 273 274
251 251 252 252 252 253 254 254 255 256 256 257 257 257 257 258 258 259 259 260 261 261 261 261 261 262 262 263 264 264 265 265 265 265 266 267 268 269 270 271 272 273
251 251 252 252 252 253 253 254 255 255 256 257 257 257 257 258 258 258 258 259 259 260 260 261 261 261 261 262 263 263 264 264 265 265 265 266 267 268 269 270 271 272
251 251 251 251 252 252 252 253 254 254 255 256 256 257 257 257 257 257 257 257 258 258 259 259 260 260 261 261 262 262 263 263 264 264 264 265 265 266 267 268 269 270
250 250 250 250 251 251 252 252 252 253 253 254 254 255 255 255 255 255 255 256 256 256 257 257 258 259 260 260 260 260 260 261 261 262 262 262 263 264 265 266 267 267
248 249 249 250 250 250 251 251 251 252 252 252 253 253 253 253 253 254 254 254 255 255 255 256 256 257 258 258 259 259 258 258 259 259 260 260 261 262 263 263 264 264
247 248 248 249 249 249 250 250 251 251 251 251 251 252 252 252 252 252 253 253 253 254 254 255 255 256 256 257 257 257 257 257 257 257 258 259 259 260 260 261 261 262
246 246 247 248 248 248 249 249 249 250 250 250 250 251 251 251 251 251 252 252 252 253 253 254 254 255 255 255 255 256 255 255 256 256 256 257 257 258 258 259 259 260
245 245 246 246 247 247 248 248 248 248 249 249 249 249 249 250 250 250 251 251 252 252 252 252 253 253 254 254 254 254 254 254 254 254 255 256 256 256 257 257 258 259
244 244 244 245 245 246 247 247 247 247 247 248 248 248 248 249 249 249 250 250 251 251 251 251 252 252 252 253 253 253 253 253 253 253 254 254 254 255 255 256 257 258
244 244 244 244 244 245 245 246 246 246 246 247 247 247 248 248 248 249 249 250 250 250 251 251 251 251 251 251 252 252 252 252 252 252 252 253 254 254 255 256 256 257
243 244 244 243 243 243 244 245 245 245 245 246 246 246 247 247 248 248 248 249 250 250 250 250 250 250 250 250 251 251 251 250 250 251 251 252 253 254 254 255 256 256
243 243 243 243 243 243 243 243 244 245 245 245 245 245 246 246 247 247 248 248 249 249 250 250 250 250 250 250 250 250 250 250 250 250 251 252 252 253 254 254 255 256
242 242 242 243 243 243 242 242 243 244 244 245 244 245 245 245 246 246 247 247 248 249 249 249 249 249 249 249 249 249 249 249 250 250 251 251 252 252 253 254 255 255
243 242 242 243 243 243 243 242 242 242 243 244 244 244 244 244 245 245 246 247 247 248 248 248 249 249 249 249 248 249 249 249 250 250 251 251 252 252 253 254 255 255
243 243 243 243 243 243 243 243 242 242 242 243 244 244 244 244 244 245 245 246 247 247 248 248 248 248 248 248 248 249 249 249 250 250 251 252 252 253 254 254 255 255
243 243 243 243 243 243 243 243 243 243 242 242 243 243 244 244 244 244 245 245 246 247 247 247 248 248 248 248 248 249 249 249 250 250 251 252 252 253 254 254 255 256
Height
10663 10666 10670 10675 10679 10684 10686 10688 10690 10692 10695 10697 10701 10704 10706 10707 10708 10709 10712 10716 10719 10721 10723 10724 10725 10726 10729 10732 10735 10738 10739 10740 10740 10741 10742 10744 10743 10743 10743 10742 10742 10743
10651 10654 10658 10662 10666 10671 10674 10675 10678 10680 10683 10687 10690 10693 10695 10696 10698 10701 10703 10707 10710 10712 10713 10714 10716 10718 10720 10723 10727 10730 10731 10732 10732 10733 10734 10735 10735 10735 10734 10734 10734 10736
10638 10642 10646 10649 10653 10657 10659 10661 10665 10670 10674 10677 10680 10682 10684 10685 10687 10690 10693 10697 10700 10703 10705 10705 10707 10709 10711 10715 10718 10721 10723 10724 10724 10725 10726 10727 10727 10727 10726 10726 10727 10728
10624 10629 10633 10636 10640 10643 10645 10648 10654 10659 10663 10667 10669 10670 10671 10673 10676 10680 10682 10685 10690 10694 10695 10696 10698 10700 10703 10706 10710 10712 10714 10715 10715 10716 10717 10718 10718 10718 10718 10718 10719 10721
10610 10615 10620 10623 10627 10630 10633 10637 10642 10647 10651 10654 10656 10656 10659 10663 10666 10669 10671 10674 10679 10683 10685 10686 10689 10692 10694 10697 10701 10703 10705 10706 10707 10707 10708 10709 10709 10709 10709 10710 10712 10713
10595 10600 10605 10609 10613 10617 10621 10625 10629 10633 10638 10641 10642 10644 10648 10652 10655 10657 10659 10662 10667 10672 10676 10678 10680 10683 10686 10689 10691 10694 10696 10697 10697 10697 10698 10699 10699 10699 10701 10703 10705 10706
10579 10584 10589 10594 10599 10603 10608 10613 10616 10619 10624 10628 10629 10632 10636 10639 10642 10645 10645 10648 10654 10661 10666 10669 10671 10674 10677 10680 10682 10685 10687 10687 10688 10688 10689 10690 10690 10691 10693 10695 10697 10698
10563 10568 10573 10578 10584 10589 10594 10600 10603 10606 10610 10614 10618 10620 10623 10626 10629 10632 10632 10635 10642 10649 10655 10659 10662 10665 10668 10671 10673 10675 10676 10677 10678 10678 10679 10681 10681 10682 10684 10686 10689 10690
10546 10551 10557 10562 10568 10574 10580 10585 10588 10592 10595 10600 10606 10609 10610 10613 10616 10618 10620 10623 10630 10638 10644 10649 10652 10655 10657 10661 10663 10665 10666 10667 10668 10669 10670 10672 10673 10674 10675 10679 10681 10682
10529 10534 10540 10546 10553 10558 10564 10569 10573 10576 10580 10585 10592 10596 10598 10600 10603 10605 10607 10611 10618 10626 10633 10637 10640 10643 10646 10649 10652 10654 10655 10657 10658 10659 10660 10662 10664 10665 10667 10671 10673 10674
10511 10517 10523 10529 10535 10542 10548 10553 10557 10561 10564 10568 10575 10581 10585 10587 10589 10592 10594 10599 10606 10614 10620 10624 10628 10631 10634 10638 10640 10642 10644 10646 10647 10648 10650 10652 10653 10655 10658 10661 10664 10664
10493 10499 10505 10511 10517 10524 10531 10536 10540 10545 10549 10553 10558 10565 10570 10572 10574 10577 10581 10587 10593 10600 10606 10611 10615 10619 10623 10626 10629 10631 10633 10635 10636 10637 10639 10641 10643 10645 10648 10652 10654 10655
10474 10480 10487 10493 10499 10505 10512 10518 10524 10529 10534 10537 10541 10547 10553 10557 10558 10561 10565 10572 10578 10585 10592 10598 10602 10607 10611 10615 10618 10620 10622 10623 10624 10626 10627 10629 10632 10635 10639 10643 10645 10647
10455 10461 10468 10475 10481 10488 10494 10500 10506 10511 10517 10521 10525 10531 10537 10541 10543 10545 10549 10556 10562 10570 10578 10584 10590 10595 10599 10603 10606 10609 10610 10610 10611 10613 10614 10617 10621 10625 10630 10633 10636 10638
10438 10443 10450 10457 10464 10471 10477 10482 10489 10495 10500 10506 10510 10516 10521 10525 10528 10530 10534 10541 10548 10556 10563 10570 10577 10582 10587 10590 10593 10596 10598 10598 10598 10600 10602 10605 10610 10615 10620 10624 10626 10628
10422 10427 10433 10440 10447 10454 10460 10466 10472 10478 10484 10491 10495 10500 10506 10510 10514 10517 10521 10527 10534 10542 10549 10556 10563 10569 10573 10576 10579 10582 10585 10585 10586 10588 10590 10594 10599 10605 10610 10613 10615 10617
10405 10412 10417 10423 10430 10437 10445 10450 10456 10462 10468 10474 10480 10485 10490 10496 10500 10504 10507 10512 10520 10528 10536 10543 10549 10554 10558 10562 10565 10569 10571 10573 10575 10576 10578 10583 10589 10595 10599 10602 10604 10606
10387 10395 10402 10408 10414 10420 10428 10435 10440 10446 10451 10458 10464 10469 10475 10480 10486 10490 10494 10498 10505 10514 10523 10529 10535 10540 10544 10548 10552 10556 10558 10560 10563 10565 10568 10572 10579 10584 10588 10591 10593 10596
10369 10377 10385 10392 10399 10404 10410 10418 10425 10430 10436 10441 10448 10454 10459 10465 10471 10476 10480 10484 10490 10499 10508 10516 10521 10526 10531 10534 10538 10542 10545 10548 10551 10554 10557 10561 10567 10573 10578 10581 10583 10585
10352 10360 10368 10375 10383 10389 10394 10401 10408 10415 10421 10426 10433 10439 10445 10451 10456 10461 10466 10470 10476 10484 10493 10501 10507 10513 10517 10521 10525 10529 10533 10536 10539 10542 10544 10549 10557 10563 10568 10570 10572 10575
10336 10343 10350 10358 10366 10373 10379 10385 10392 10399 10406 10412 10418 10425 10431 10437 10442 10447 10452 10457 10462 10469 10477 10486 10493 10499 10503 10508 10512 10516 10519 10523 10526 10529 10533 10539 10547 10553 10557 10559 10561 10565
10321 10328 10334 10341 10349 10357 10364 10371 10377 10384 10390 10397 10404 10411 10418 10423 10429 10434 10439 10444 10449 10455 10464 10472 10479 10485 10490 10494 10499 10503 10506 10509 10513 10518 10523 10530 10536 10541 10545 10547 10550 10555
10305 10313 10319 10326 10333 10340 10348 10356 10363 10369 10375 10383 10391 10397 10404 10410 10415 10421 10426 10430 10435 10442 10450 10458 10465 10470 10476 10481 10485 10489 10493 10497 10502 10507 10513 10519 10525 10529 10533 10536 10540 10545
10291 10299 10306 10313 10319 10326 10333 10341 10349 10355 10361 10368 10376 10383 10390 10397 10402 10408 10413 10418 10423 10429 10436 10444 10451 10457 10462 10467 10472 10476 10480 10485 10491 10497 10502 10508 10513 10518 10521 10525 10529 10534
10279 10286 10293 10300 10306 10313 10320 10326 10334 10341 10348 10354 10361 10369 10377 10384 10390 10396 10401 10406 10411 10416 10423 10430 10437 10443 10449 10454 10459 10463 10468 10474 10480 10486 10492 10498 10502 10506 10509 10513 10518 10523
10266 10273 10280 10286 10293 10299 10306 10313 10320 10327 10335 10342 10347 10354 10363 10371 10378 10385 10390 10395 10399 10404 10410 10417 10424 10430 10435 10441 10446 10451 10457 10463 10469 10476 10482 10486 10490 10494 10498 10502 10507 10511